Regional Weather Roundup
Issued by NWS

Home | Current Version | Previous Version | Graphics & Text | Print | Product List | Glossary On
Versions: 1 2 3 4 5 6 7 8 9 10 11 12 13 14 15 16 17 18 19 20 21 22 23 24 25 26 27 28 29 30 31 32 33 34 35 36 37 38 39 40 41 42 43 44 45 46 47 48 49 50
000
ASUS43 KOAX 210510
RWRNE

WEATHER ROUNDUP FOR NEBRASKA
NATIONAL WEATHER SERVICE OMAHA NE
1200 AM CDT SAT OCT 21 2017

NOTES: SATELLITE DATA IS BEING USED TO AUGMENT CLOUD COVER ABOVE
       12000 FEET.
       "FAIR" INDICATES FEW OR NO CLOUDS BELOW 12,000 FEET WITH NO
       SIGNIFICANT WEATHER AND/OR OBSTRUCTIONS TO VISIBILITY.


NEZ001>004-019>022-054>056-210600-
NEBRASKA PANHANDLE

CITY           SKY/WX    TMP DP  RH WIND       PRES   REMARKS
SCOTTSBLUFF    CLOUDY    60  35  39 W13       29.54R
ALLIANCE       CLOUDY    63  40  42 W16G26    29.49R
CHADRON        CLOUDY    69  31  24 W24G41    29.50R
GORDON         MOCLDY    58  48  68 CALM      29.46R
KIMBALL        CLOUDY    55  35  48 NW17G30   29.56R
SIDNEY         CLOUDY    53  39  59 S3        29.47F
$$

NEZ057>060-069>072-079>082-210600-
SOUTHWEST NEBRASKA

CITY           SKY/WX    TMP DP  RH WIND       PRES   REMARKS
NORTH PLATTE   CLEAR     65  56  72 SE15      29.47F
IMPERIAL       CLEAR     61  51  70 S10       29.46S
LEXINGTON      CLEAR     66  57  74 S21G26    29.51F
MCCOOK         CLEAR     67  57  70 S21G32    29.47F
OGALLALA       CLEAR     59  51  73 E6        29.45F
$$

NEZ005>010-023>029-035>040-094-210600-
NORTH CENTRAL NEBRASKA

CITY           SKY/WX    TMP DP  RH WIND       PRES   REMARKS
VALENTINE      CLOUDY    66  53  63 S18G28    29.43F
AINSWORTH      CLOUDY    64  55  74 S16       29.47F
BROKEN BOW     CLEAR     65  57  75 S17G25    29.51F
O`NEILL        CLEAR     66  59  76 S21G32    29.52R
ORD            CLEAR     66  58  75 S18G29    29.52F
THEDFORD       PTCLDY    65  56  72 S18G25    29.48F
$$

NEZ041-046>049-061>064-073>077-083>087-210600-
SOUTH CENTRAL NEBRASKA

CITY           SKY/WX    TMP DP  RH WIND       PRES   REMARKS
GRAND ISLAND   CLOUDY    67  59  75 S20G31    29.58F
AURORA         CLOUDY    67  57  69 S21G28    29.60F
HASTINGS       CLOUDY    67  57  70 S18G29    29.59F
HEBRON         CLOUDY    69  58  69 S22       29.64F
HOLDREGE       CLEAR     65  59  78 S21G29    29.54F
KEARNEY        CLEAR     66  59  78 S24G33    29.54F
YORK           CLOUDY    66  57  72 S24       29.62F
$$

NEZ011>018-030>034-042>045-210600-
NORTHEAST NEBRASKA

CITY           SKY/WX    TMP DP  RH WIND       PRES   REMARKS
NORFOLK        CLEAR     67  57  70 S23G35    29.59F
ALBION         MOCLDY    69  58  69 S20G28    29.58F
BLAIR          PTCLDY    67  57  72 S22G28    29.69F
COLUMBUS       CLOUDY    67  57  70 S16       29.62F
FREMONT        CLEAR     67  57  70 SE16      29.68F
TEKAMAH        CLEAR     67  56  67 S18G25    29.67F
WAYNE          PTCLDY    66  59  76 S20G29    29.60F
$$

NEZ050>053-065>068-078-088>093-210600-
SOUTHEAST NEBRASKA

CITY           SKY/WX    TMP DP  RH WIND       PRES   REMARKS
LINCOLN        PTCLDY    68  59  73 S22G29    29.66F
OMAHA EPPLEY   PTCLDY    68  56  65 S24G30    29.71S
BEATRICE       CLOUDY    68  60  75 S14G26    29.68F
FALLS CITY     CLOUDY    67  57  70 S15G25    29.76F
NEBRASKA CITY  CLOUDY    66  59  77 S18G26    29.73F
PLATTSMOUTH    PTCLDY    66  58  74 S16G26    29.72F
$$

NEZ044-045-051>053-067-210600-
OMAHA AREA

CITY           SKY/WX    TMP DP  RH WIND       PRES   REMARKS
OMAHA EPPLEY   PTCLDY    68  56  65 S24G30    29.71S
BLAIR          PTCLDY    67  57  72 S22G28    29.69F
FREMONT        CLEAR     67  57  70 SE16      29.68F
MILLARD        PTCLDY    68  58  72 SE13G20   29.70F
OFFUTT AFB     PTCLDY    66  56  70 SE16G23   29.71F
PLATTSMOUTH    PTCLDY    66  58  74 S16G26    29.72F
WAHOO          FAIR      67  57  70 S21       29.67F
$$



USA.gov is the U.S. government's official web portal to all federal, state and local government web resources and services.